Wind_Speed
22 24 25 26 27 28 29 29 29 28 28 28 28 27 27 28 28 28 28 28 29 30 30 30 29 28 27 26 25 25 25 26 27 28 29 30 31 33 35 37 39 41 42 43 44 45 46 47 47 48 48 48 48 48 47 47 46 46 46 45 45 45 44 43 43 43 43 44 44 45 46 47 49 51 51 52 52 53 55 57 58 58 59 58 59 61 61
22 23 24 25 26 27 27 27 27 26 26 26 26 26 27 27 27 27 27 28 29 29 28 28 27 26 25 24 24 25 26 27 28 29 30 31 33 35 37 39 41 42 42 43 44 45 46 47 48 48 49 48 48 47 47 46 46 45 45 44 44 43 43 42 42 42 42 43 43 43 44 44 46 47 48 48 48 49 51 54 55 55 57 57 57 59 61
21 22 23 24 25 25 25 25 25 25 25 24 25 25 26 26 26 27 27 28 27 27 26 26 25 25 24 24 24 26 27 28 29 30 31 33 35 37 38 40 41 41 42 43 44 45 47 48 48 49 48 48 48 48 47 47 47 46 46 46 45 45 45 44 44 43 43 43 43 44 44 45 47 48 49 49 48 48 51 54 55 55 57 58 58 58 61
20 21 22 23 24 24 24 24 24 24 23 24 24 24 25 25 26 26 26 26 26 25 25 25 24 24 24 25 26 28 29 29 31 32 33 35 36 37 38 39 40 41 41 42 44 46 47 48 48 49 49 49 49 49 49 48 48 48 48 48 48 47 47 47 47 46 46 46 47 47 48 48 50 52 53 53 53 51 52 55 57 56 56 58 59 59 61
20 21 22 22 23 23 23 23 22 22 22 23 23 24 24 25 25 25 25 24 24 24 24 24 25 25 25 27 28 30 31 31 33 34 35 36 36 37 38 39 39 40 41 43 44 46 47 48 49 49 49 49 49 49 50 50 50 50 50 50 50 49 49 49 49 49 49 49 50 51 52 52 53 55 57 58 57 56 55 56 58 58 58 58 59 61 62
20 21 21 22 22 22 22 22 21 21 22 22 23 23 23 23 23 23 23 23 24 24 24 25 26 26 28 30 31 32 33 34 34 34 35 35 36 37 38 38 39 40 41 43 45 47 48 49 50 50 50 50 50 50 50 51 51 51 51 52 52 52 51 51 52 53 53 53 53 54 55 56 56 58 59 61 61 59 57 57 58 60 60 59 58 59 61
20 20 21 21 21 21 21 20 21 21 22 22 22 23 22 22 22 22 23 24 24 25 26 27 28 29 31 32 33 33 34 34 34 34 34 35 36 37 38 38 39 41 42 44 46 47 49 50 50 51 51 51 51 51 51 52 53 53 53 54 54 54 55 54 54 55 56 57 57 56 57 57 58 60 61 62 63 62 59 59 60 60 60 60 59 58 59
19 20 20 20 20 20 20 20 20 21 21 22 22 22 22 22 22 23 23 25 25 26 28 29 30 32 33 34 34 35 35 34 34 33 34 35 36 37 38 39 40 42 43 45 47 49 50 51 51 52 52 52 52 53 53 54 55 55 56 57 57 57 58 58 57 57 57 58 58 59 59 59 60 61 62 63 64 64 62 61 60 60 60 61 61 60 60
19 19 19 20 19 19 19 19 20 21 21 21 21 21 21 22 22 23 25 26 27 28 29 30 32 34 35 35 36 35 34 33 33 33 34 35 36 37 38 39 41 43 45 47 48 50 51 51 52 53 53 54 55 56 56 57 58 59 59 60 60 61 61 62 62 62 61 60 60 60 60 61 61 62 62 63 65 67 66 63 62 61 60 60 61 62 62
19 19 19 19 18 18 19 19 20 20 21 21 21 21 21 22 23 24 25 26 28 29 30 32 34 35 36 36 36 34 33 32 33 33 35 36 37 38 39 40 42 44 45 47 49 50 51 52 53 54 55 56 57 58 60 61 62 62 63 63 64 64 64 64 65 66 66 65 65 65 64 64 64 63 64 65 66 69 69 66 65 65 63 62 63 64 65
18 18 18 18 17 17 18 19 20 20 20 21 21 21 22 22 23 25 26 27 29 30 32 33 35 36 36 36 35 33 32 33 34 34 36 37 38 39 40 41 43 44 46 48 49 50 51 53 54 55 57 58 60 62 63 64 65 66 67 67 68 68 68 68 68 69 69 69 69 69 69 68 67 66 67 67 67 68 70 70 68 67 67 66 66 66 67
17 18 17 16 16 17 18 19 20 20 21 21 21 22 22 23 24 25 26 28 30 31 32 34 35 36 36 35 33 33 33 33 35 35 37 38 38 39 41 42 44 45 46 48 49 51 52 54 55 57 59 61 63 64 66 67 68 69 70 71 71 72 72 72 72 72 72 72 72 72 72 72 71 71 70 69 68 68 70 72 70 68 68 67 67 68 69
17 16 16 15 16 17 18 19 20 21 21 21 22 22 22 23 24 25 27 28 30 31 32 34 35 35 35 34 33 33 33 34 35 36 37 38 39 40 42 43 44 46 47 49 50 52 53 55 56 58 60 63 65 66 68 69 70 72 73 74 75 75 76 76 76 75 75 75 75 75 75 75 74 73 72 70 69 68 68 70 70 69 68 68 68 70 71
16 15 14 15 16 17 18 19 20 21 21 21 22 22 23 24 25 26 27 29 30 31 32 33 34 35 34 33 33 33 34 35 36 37 38 39 40 41 42 44 45 46 48 49 51 52 54 55 57 59 61 63 65 67 69 70 72 73 75 76 77 78 78 79 79 80 79 79 79 79 78 77 76 75 74 72 71 70 68 68 69 69 69 69 70 71 72
15 14 14 15 16 17 19 20 20 21 21 21 22 22 23 24 25 26 27 28 29 30 31 33 34 34 33 33 33 33 34 35 36 38 39 40 41 42 43 44 46 47 48 50 51 53 54 56 57 58 60 62 64 65 68 70 72 75 76 78 79 80 81 82 83 83 84 83 82 81 80 80 78 77 76 75 73 72 70 69 69 69 69 70 70 71 73
13 13 14 15 17 18 19 20 20 21 21 22 22 23 24 25 26 26 27 28 29 30 31 32 33 33 32 32 33 34 35 36 37 38 39 40 41 42 43 44 46 47 49 50 51 53 54 55 57 59 60 62 64 66 67 69 72 74 76 79 81 82 84 84 85 86 86 87 87 86 84 83 82 81 79 78 76 74 72 70 69 69 69 70 71 72 74
12 13 14 15 17 18 19 20 20 20 21 22 22 23 24 25 26 27 27 28 29 30 31 32 32 32 32 32 33 34 35 37 38 39 40 41 41 42 43 45 46 47 49 50 52 53 54 55 57 59 60 62 64 66 67 69 71 74 75 78 80 82 84 85 87 88 88 89 90 90 89 87 86 84 83 80 79 77 75 73 71 71 71 72 73 74 75
12 12 14 15 17 18 19 20 20 21 21 22 23 24 25 25 26 27 28 29 30 30 31 31 31 32 31 32 32 34 35 37 38 39 40 41 42 43 44 45 46 48 49 50 52 53 55 56 57 59 60 62 64 66 68 69 71 73 75 77 79 81 83 85 87 89 90 90 91 92 92 92 90 88 86 83 81 79 78 77 76 75 75 75 75 76 77
11 12 14 15 17 18 19 19 20 21 21 22 23 24 25 26 27 28 29 29 30 30 30 31 31 31 32 32 32 34 35 36 38 39 40 41 42 43 44 45 47 48 49 51 52 53 55 56 57 59 60 62 64 66 68 70 71 73 75 77 79 81 83 85 87 88 90 91 92 92 93 94 93 91 89 87 85 82 81 80 80 79 79 78 79 79 80
11 12 14 16 17 18 19 20 20 21 22 23 24 25 26 27 28 29 29 30 30 30 30 30 31 31 32 33 33 34 35 36 38 39 40 41 42 43 44 46 47 48 49 51 52 53 55 56 57 58 60 62 64 65 67 70 72 74 75 77 79 81 82 84 87 89 90 92 93 93 94 95 96 95 93 91 89 86 83 82 81 81 81 81 81 82 82
11 12 14 16 18 19 19 19 20 21 22 24 25 26 27 28 29 29 29 30 30 30 30 30 31 32 33 33 34 35 36 37 38 39 40 41 42 43 44 45 47 48 49 51 52 54 55 56 58 59 60 62 64 66 67 69 71 73 75 77 79 81 83 85 87 90 92 93 95 96 97 97 98 99 98 96 93 89 86 84 83 82 82 83 83 84 85
11 12 15 16 17 18 18 18 19 21 22 24 25 27 28 28 29 29 30 30 30 30 31 31 32 32 33 33 34 35 36 37 38 39 40 41 42 43 44 46 47 48 50 51 52 54 55 57 58 59 61 62 64 66 68 69 71 73 75 77 79 81 83 85 87 89 92 94 96 98 100 100 100 101 101 100 97 94 90 87 85 85 85 85 85 86 87
11 13 15 16 17 18 18 19 20 22 23 25 27 28 28 28 29 30 30 30 31 32 32 32 32 33 33 34 34 35 36 38 39 40 41 42 43 44 45 47 48 49 51 52 53 54 56 57 59 60 61 63 64 65 67 69 71 72 74 76 79 81 83 85 86 88 90 93 95 97 99 101 101 102 102 101 100 97 94 91 89 87 87 87 87 88 88
11 13 15 16 17 18 18 19 21 22 24 25 26 26 27 28 29 30 31 32 32 33 33 33 33 34 34 35 36 36 38 39 40 41 42 43 44 45 47 48 49 51 52 53 54 55 56 57 59 61 63 64 65 66 67 68 70 72 73 75 77 79 82 84 86 87 89 91 94 96 98 100 101 103 103 103 102 100 97 94 91 89 88 88 88 89 90
11 13 15 16 17 17 18 19 20 21 22 23 24 26 27 28 29 30 31 32 32 33 33 34 34 35 36 37 38 38 39 40 41 42 43 44 45 47 48 49 51 52 54 55 56 56 57 57 59 61 63 64 66 67 68 69 70 72 74 75 77 79 80 83 85 87 88 90 93 95 98 99 101 102 103 104 104 102 100 96 93 91 90 89 89 90 91
12 13 15 16 17 17 18 19 19 21 22 23 24 26 27 27 28 29 30 31 32 33 34 35 36 37 38 39 40 40 41 42 42 43 44 46 47 48 49 51 52 54 55 56 57 57 58 58 59 60 62 64 66 67 69 70 71 73 75 76 77 79 81 82 84 86 88 90 91 94 96 98 100 102 103 104 105 105 103 99 96 93 92 91 91 91 91
12 14 15 16 17 17 18 19 20 21 22 23 24 25 26 27 28 28 30 31 32 33 35 36 37 38 39 40 41 42 43 43 44 45 46 47 48 50 51 52 53 55 56 57 58 59 59 59 60 60 61 63 65 67 69 70 72 73 75 77 78 80 81 83 85 87 89 91 92 94 96 98 100 102 104 106 107 107 106 103 100 97 94 93 92 92 92
13 14 16 16 17 18 19 19 20 21 22 23 25 26 27 28 28 30 31 32 33 35 36 37 39 40 41 42 43 44 45 45 46 47 48 48 49 50 52 53 55 56 57 59 60 61 61 61 61 61 62 63 64 66 68 70 72 73 75 78 79 81 82 83 85 87 89 92 94 96 97 99 101 103 105 107 108 109 109 107 104 100 97 96 95 94 94
14 15 16 17 17 18 19 20 21 22 23 24 25 26 27 28 30 31 32 34 35 37 38 40 41 43 44 44 45 46 47 48 48 48 49 49 50 51 52 54 56 57 58 60 61 62 62 63 63 63 63 63 64 65 67 69 71 73 75 77 79 81 82 84 85 87 89 92 94 96 98 100 102 104 106 107 109 110 110 110 107 104 100 98 97 97 96
15 16 16 17 18 19 20 21 21 22 23 25 26 27 28 30 31 33 34 36 38 39 41 43 44 46 47 47 48 48 49 49 49 49 49 50 51 52 53 54 56 57 59 60 61 62 63 63 64 64 65 66 66 65 66 68 70 72 74 76 78 80 82 84 86 88 90 92 94 96 98 100 102 104 106 108 110 111 112 112 110 107 104 101 100 99 98
16 16 17 18 18 19 20 21 22 23 24 25 27 28 30 31 33 34 36 38 40 42 43 45 46 48 49 50 50 50 50 50 50 51 51 51 52 52 54 55 57 58 59 61 62 63 63 64 64 65 66 67 68 68 68 69 70 72 73 75 77 80 82 84 86 88 90 92 94 96 98 100 102 104 106 108 110 112 113 113 112 110 107 104 102 101 100
17 17 18 18 19 20 21 22 22 23 25 26 28 30 31 33 34 36 38 40 42 43 44 46 47 48 50 51 51 51 51 52 52 52 53 53 54 54 55 56 57 59 60 61 62 63 64 65 65 66 67 68 70 71 71 71 71 72 73 75 77 79 81 83 85 88 90 93 94 96 98 100 102 104 105 107 109 111 113 114 113 112 109 106 104 103 102
19 19 19 19 20 20 21 22 23 24 26 27 29 31 32 34 36 38 40 41 43 44 45 46 48 48 50 51 52 53 53 53 53 53 54 55 55 56 56 57 58 59 61 62 63 63 64 65 66 67 68 69 70 71 72 73 73 73 74 75 76 78 80 83 85 88 90 93 95 97 98 100 102 104 106 107 110 112 113 114 115 114 111 108 106 105 104
20 20 20 21 21 22 23 23 24 25 27 28 30 32 34 35 37 39 41 42 43 45 46 47 49 50 51 52 53 54 54 53 53 53 53 54 55 56 57 57 58 60 61 63 64 64 65 66 67 68 70 71 71 72 73 74 74 74 75 77 77 79 81 83 86 88 91 93 96 98 99 101 103 105 106 108 110 112 114 116 116 116 113 111 108 106 105
22 22 22 22 23 23 24 25 25 27 28 30 31 33 34 36 38 39 41 43 44 46 46 47 48 50 51 53 54 54 54 54 53 53 53 54 55 56 57 58 59 60 62 64 65 66 66 67 68 70 71 72 73 73 73 74 75 76 77 78 79 80 81 83 85 88 91 93 96 98 100 101 103 105 107 109 110 112 115 116 117 117 116 113 110 108 106
23 24 24 24 25 25 25 26 27 28 29 31 32 34 35 37 38 40 42 44 45 46 47 48 49 49 51 52 53 54 54 54 54 54 54 54 55 56 57 58 59 61 62 64 66 67 68 69 70 71 72 73 74 74 75 75 76 77 78 79 80 81 82 84 85 87 90 93 96 98 100 101 103 105 107 109 111 113 115 117 118 118 117 114 112 110 108
25 26 26 26 27 27 27 28 28 29 31 32 33 35 36 37 39 41 43 45 46 48 49 49 50 51 51 52 54 55 55 55 55 55 55 55 55 55 56 58 59 60 62 64 66 67 69 70 70 72 73 74 75 76 76 76 77 78 79 80 81 82 83 85 86 88 90 93 96 98 100 102 104 106 108 110 112 114 116 118 119 119 118 116 113 111 109
27 28 28 28 29 29 29 29 30 31 32 33 35 36 37 39 40 42 43 45 48 49 50 51 51 52 53 54 54 55 55 56 56 56 56 56 56 56 56 57 58 60 61 63 65 66 68 69 69 70 72 74 75 76 77 78 79 79 80 81 82 83 84 86 87 89 91 93 96 98 99 101 103 105 107 110 112 114 116 118 120 120 119 117 114 112 111
28 29 30 30 31 31 31 31 32 33 34 35 36 37 38 40 41 43 45 46 48 50 51 52 52 53 54 55 56 56 56 56 56 57 57 57 57 56 56 57 59 60 61 62 64 64 66 67 68 68 70 73 74 76 78 79 80 81 82 83 84 85 86 87 89 90 92 94 96 98 99 101 103 105 107 109 112 114 116 118 120 121 121 118 116 113 112
30 31 32 32 33 33 33 33 34 35 35 36 37 38 40 41 42 44 46 48 49 51 52 53 54 54 54 55 56 57 57 56 55 56 57 57 58 58 58 59 59 60 60 61 62 63 64 66 67 68 70 72 74 76 78 80 82 83 84 84 85 86 87 89 90 91 93 95 97 99 100 102 103 106 108 110 112 114 116 119 121 122 122 120 117 114 113
31 32 33 34 34 35 35 36 36 37 37 38 39 40 41 42 43 45 46 48 50 51 52 53 54 54 55 55 56 57 57 57 56 55 56 57 58 59 60 60 60 60 60 61 61 62 63 65 68 69 71 73 75 78 80 82 84 86 86 87 87 88 89 90 91 92 94 95 97 99 101 102 104 106 108 110 112 115 117 119 121 123 123 121 118 115 113
33 34 35 35 36 36 37 37 38 39 40 40 41 42 43 44 45 46 47 48 50 51 53 53 54 54 54 55 56 57 57 57 56 55 55 56 57 58 58 59 59 60 60 61 62 63 64 66 68 70 72 74 76 79 81 83 86 88 90 91 91 91 91 91 92 93 95 96 98 100 101 103 105 107 109 111 113 115 117 120 122 123 124 122 119 116 114
34 35 36 37 37 38 38 39 40 41 41 42 43 44 46 46 47 48 49 50 51 52 53 54 54 55 55 56 57 57 57 58 58 56 55 56 57 58 57 57 58 59 60 61 62 64 66 67 69 71 73 75 78 80 82 84 87 90 93 95 95 95 95 94 94 94 96 97 99 100 101 103 105 107 109 111 113 115 118 120 122 124 124 123 120 117 114
35 36 37 38 38 39 40 40 41 42 43 44 45 45 47 48 49 50 52 52 53 53 54 54 55 56 55 56 57 58 57 58 60 58 56 56 58 59 59 58 58 58 60 62 63 65 67 68 70 72 75 77 79 82 84 86 89 92 95 97 98 99 99 98 97 96 97 98 99 101 102 104 106 108 109 111 113 116 118 120 123 124 125 124 122 118 115
36 37 38 39 40 40 41 42 43 43 44 46 46 47 48 49 50 51 53 53 54 54 55 55 56 56 56 57 58 59 58 58 60 60 58 56 58 60 60 60 59 59 61 63 64 65 67 69 72 74 77 79 81 84 86 88 90 93 96 98 100 101 102 101 100 99 98 99 100 101 102 104 106 108 110 112 114 116 118 121 123 125 126 125 123 119 116
37 38 38 40 41 41 41 43 44 44 45 46 47 48 49 50 51 52 53 54 54 55 55 55 55 56 57 57 59 60 60 59 60 62 60 58 58 60 61 61 61 62 63 64 66 67 69 71 73 76 79 81 83 86 88 90 92 95 97 99 101 103 104 104 103 102 100 100 100 102 103 104 106 108 110 112 114 116 118 121 123 125 126 126 124 120 117
38 38 39 40 42 42 43 44 45 45 45 46 48 48 49 50 52 53 54 55 55 56 56 56 56 56 57 57 59 61 61 60 60 63 63 60 59 60 61 62 64 65 66 67 68 70 72 73 76 78 81 83 85 88 90 92 94 96 98 100 102 104 105 106 106 104 103 102 101 102 103 105 106 108 111 113 115 117 119 121 124 125 126 127 125 121 118
38 39 39 40 42 43 44 45 46 46 46 46 47 48 49 50 52 53 54 56 56 57 57 57 56 56 57 57 59 61 62 61 61 64 65 63 61 60 61 63 64 67 69 70 71 72 74 76 78 80 83 85 87 89 92 94 96 98 100 102 103 105 107 108 108 107 105 104 103 103 104 105 107 109 111 113 115 118 119 122 124 126 127 127 126 122 118
39 40 40 41 42 43 44 46 47 48 48 47 47 48 49 50 52 53 55 56 57 58 58 58 58 57 57 58 59 61 62 62 63 65 66 65 63 62 63 64 66 68 71 73 74 75 76 77 79 82 85 87 89 91 94 96 98 100 102 103 105 106 108 109 109 109 108 106 105 104 104 105 107 109 111 114 116 118 120 122 124 126 128 128 126 123 119
40 41 41 41 42 43 45 46 47 49 50 49 49 49 50 51 53 54 55 57 58 59 60 60 59 59 59 59 60 62 62 62 63 66 67 66 65 64 64 66 68 70 72 75 77 78 79 80 81 83 86 88 91 93 95 97 99 101 103 105 106 108 109 110 111 111 110 108 106 105 105 106 108 110 112 114 116 119 121 123 125 127 128 128 126 123 120
40 41 42 42 42 43 44 46 47 49 50 51 51 52 52 53 54 55 57 58 59 61 61 61 61 61 60 61 62 63 63 62 63 66 68 67 66 65 65 67 69 71 74 76 79 81 83 84 85 86 88 90 92 94 96 98 101 102 104 106 108 109 110 111 112 112 111 110 108 106 106 106 108 110 112 114 117 119 122 123 126 127 129 128 127 123 120
41 41 42 43 43 43 44 45 46 48 50 51 52 53 54 55 55 56 58 59 61 62 63 63 62 62 62 63 64 65 65 63 64 67 68 69 68 67 67 69 71 73 76 78 80 82 84 86 87 89 90 92 93 95 97 99 102 104 105 107 109 110 111 112 113 113 112 111 109 107 106 107 108 110 113 115 117 120 122 124 126 128 129 128 126 123 120
Wind_Direction
281 283 287 293 299 304 308 311 314 317 322 325 327 330 333 334 334 333 334 336 338 339 339 339 339 339 339 340 341 343 345 346 347 347 347 348 348 348 349 349 349 349 350 350 349 348 347 346 346 345 344 343 342 341 341 340 339 338 337 336 335 334 333 331 330 328 326 325 323 322 320 319 317 315 313 312 313 313 312 311 310 311 310 310 310 308 308
283 288 295 301 306 310 313 316 320 325 328 330 333 335 336 335 335 337 340 341 341 340 340 341 341 342 342 343 345 348 349 350 350 350 350 350 350 350 351 351 351 351 350 350 349 348 348 348 348 347 346 345 344 344 343 343 342 342 340 339 337 336 335 333 333 332 331 329 327 326 323 321 319 317 316 317 318 318 316 315 316 317 316 315 316 317 316
290 296 303 308 311 315 319 323 327 330 332 335 337 337 336 337 340 342 343 342 341 341 343 344 344 345 346 347 350 352 353 352 352 352 352 352 352 352 352 352 352 351 350 350 349 349 349 349 349 348 348 347 347 347 346 346 346 345 344 343 342 341 340 339 338 337 335 333 332 331 329 328 327 326 326 326 327 327 326 325 325 326 326 325 325 326 325
299 305 310 314 317 321 325 329 332 334 337 339 338 337 340 342 344 344 343 342 343 345 346 347 349 350 350 352 355 356 355 354 353 354 353 353 353 353 352 352 352 351 351 350 350 350 351 351 350 350 350 350 350 350 350 350 350 349 349 348 348 347 346 345 344 343 341 340 339 338 338 337 336 335 335 335 335 336 336 334 332 333 334 333 332 332 331
308 312 315 319 323 327 331 333 335 339 340 339 338 341 344 345 344 343 343 344 347 348 350 353 354 354 355 357 359 358 356 355 355 354 354 354 354 353 353 352 352 352 352 352 352 352 352 353 353 353 353 354 354 354 354 354 353 353 353 352 352 352 351 350 349 349 348 347 346 345 344 344 343 342 341 340 340 341 341 340 337 337 338 339 338 337 336
313 316 320 324 329 332 334 337 339 341 339 339 342 345 345 344 344 343 345 348 351 352 355 358 358 357 359 1 360 358 356 355 355 354 354 355 354 354 354 354 353 353 353 353 354 354 355 355 356 356 357 357 358 358 358 358 358 357 357 357 357 357 356 355 355 354 354 352 352 351 349 348 347 346 345 344 344 343 344 343 342 341 341 341 341 340 339
316 321 325 329 332 334 337 340 341 340 340 343 345 345 343 343 344 346 349 353 355 356 359 1 0 1 3 2 360 358 356 355 355 355 356 356 356 355 355 355 354 354 355 356 356 357 358 359 360 1 1 2 2 2 2 2 2 2 2 1 0 0 360 359 358 358 357 356 355 354 353 351 350 349 348 347 345 344 345 346 346 344 343 342 342 342 342
321 326 330 332 334 337 340 341 341 341 343 345 344 342 343 345 347 349 354 357 358 0 3 3 3 4 4 1 359 357 356 356 357 358 358 358 358 357 357 357 356 357 358 359 360 1 2 3 5 6 6 7 7 7 6 6 6 6 5 4 4 3 3 2 1 1 0 359 357 356 355 353 352 351 350 348 346 345 346 348 348 346 345 344 343 344 344
326 330 332 334 336 340 342 341 341 343 344 343 342 342 344 347 349 353 358 360 0 3 4 4 5 5 3 360 358 357 357 359 0 1 1 0 360 359 359 359 359 359 0 2 3 4 6 7 9 10 11 11 11 11 11 11 10 9 9 8 6 6 6 5 3 2 2 1 359 358 357 355 354 353 351 350 349 347 347 349 349 347 346 346 345 345 345
329 331 333 335 339 341 341 341 342 343 342 341 341 343 346 348 352 357 360 0 2 4 5 5 5 3 1 359 358 359 1 3 3 3 2 2 2 1 1 0 1 1 3 4 5 7 8 10 11 12 13 14 14 14 14 14 13 13 12 11 10 8 8 7 6 4 3 2 1 360 359 358 357 355 354 353 353 350 347 349 350 348 347 348 347 347 347
330 332 334 337 340 341 341 342 342 342 341 340 342 344 346 349 354 357 359 0 2 3 4 4 4 1 359 359 0 3 5 5 4 3 3 3 2 2 2 2 2 3 4 5 6 8 9 10 12 13 14 15 15 15 16 15 15 15 14 13 12 11 10 9 8 7 5 4 3 2 0 359 358 358 357 356 355 352 348 349 351 351 349 350 349 349 349
330 332 335 338 341 341 341 342 341 341 340 341 343 345 346 350 355 357 358 0 1 2 3 3 1 360 360 1 3 5 5 5 4 3 3 3 2 2 2 2 3 4 5 6 7 8 10 11 12 13 14 15 15 16 16 16 15 15 15 14 14 12 11 10 10 8 7 6 5 3 2 1 360 359 359 357 356 355 352 350 351 352 351 351 351 350 350
330 332 336 340 341 341 342 342 341 340 341 342 343 344 346 351 354 355 357 359 359 359 1 1 360 359 1 2 4 5 5 4 4 3 3 3 2 2 2 3 4 5 5 6 8 9 10 11 13 14 14 15 15 15 15 15 15 14 14 14 14 13 12 11 10 10 9 7 6 5 4 3 1 0 359 358 358 358 356 352 351 352 352 351 352 351 351
330 332 337 340 341 342 342 342 341 341 342 342 343 345 348 352 354 354 356 357 356 357 359 359 359 359 1 3 4 4 4 4 3 3 3 3 2 2 3 3 4 5 5 7 8 9 10 11 13 14 14 15 15 15 14 14 14 14 13 13 13 13 12 12 11 10 10 9 7 6 5 4 3 1 0 359 359 359 358 355 353 353 353 353 353 352 352
329 334 339 341 341 343 343 342 342 342 342 343 345 348 351 353 353 354 354 355 354 355 357 358 358 359 1 3 4 4 3 3 3 3 3 2 2 2 3 3 4 4 5 6 7 9 10 11 12 13 13 13 14 14 13 13 13 12 12 12 12 12 11 11 11 10 10 9 8 7 6 5 3 2 1 0 360 359 359 357 356 355 355 354 353 353 353
330 336 340 341 343 344 342 342 343 342 343 345 348 350 352 353 354 353 354 354 353 355 357 357 357 359 0 2 3 3 3 2 2 2 2 2 2 2 2 2 3 4 4 5 6 7 8 9 10 11 11 11 11 12 12 12 11 11 11 11 10 10 10 10 10 10 10 9 8 7 7 6 4 3 2 1 360 359 359 358 357 356 356 356 355 354 354
332 338 340 342 344 343 342 343 343 343 346 349 351 352 354 354 354 354 354 354 354 355 356 356 356 357 359 0 1 2 2 2 1 1 1 1 0 0 1 1 1 2 3 4 4 5 6 7 7 8 8 9 9 9 10 10 10 9 10 10 9 9 9 9 9 9 9 9 9 7 6 6 5 4 3 2 360 359 359 358 358 357 357 357 356 356 355
334 338 341 343 343 342 342 342 343 346 349 351 352 354 356 355 355 355 355 354 354 355 354 354 354 356 357 358 359 359 360 359 359 359 359 359 359 359 359 360 360 1 1 2 2 3 4 5 6 6 6 6 7 8 8 8 9 8 8 8 8 8 8 8 8 8 8 9 9 8 6 6 6 5 3 2 1 359 358 358 358 358 358 358 357 357 356
334 337 341 343 341 341 342 343 346 349 351 353 355 357 357 356 357 357 356 354 354 354 352 352 353 354 355 355 355 355 355 355 355 355 356 356 357 357 358 358 358 359 360 0 1 1 2 2 3 4 4 5 6 6 6 6 7 7 7 6 6 6 7 6 6 7 7 7 8 9 7 6 6 6 4 3 2 0 359 358 358 358 358 358 358 358 357
333 337 341 342 341 342 343 345 348 350 353 356 358 358 357 357 358 357 355 354 353 352 350 350 351 353 353 353 352 352 351 351 352 352 353 354 355 355 356 356 357 357 358 359 359 360 0 0 1 2 3 3 4 5 5 5 5 5 5 5 5 5 5 5 5 5 6 6 6 7 8 7 6 6 5 4 2 1 360 359 358 358 358 358 358 358 357
332 338 341 341 341 342 343 346 349 352 356 358 358 357 358 358 357 355 354 354 353 350 349 349 350 351 351 351 351 351 351 351 351 350 350 351 352 353 353 354 355 355 356 357 357 358 358 359 359 0 1 2 2 3 3 4 4 4 4 3 4 3 3 4 4 4 4 5 5 6 7 7 7 6 5 4 3 2 0 359 358 358 358 358 358 358 358
331 337 339 339 340 340 341 345 349 354 357 358 358 358 358 357 356 355 354 353 351 350 350 350 350 350 349 349 350 351 351 351 351 351 350 350 350 350 351 351 352 353 353 354 355 356 357 357 358 359 360 0 1 1 1 2 2 3 3 2 2 3 2 2 3 3 3 4 4 4 5 6 6 6 5 4 3 2 1 359 358 357 358 358 358 358 357
328 334 336 336 337 337 340 346 351 354 357 358 358 357 356 355 355 355 354 353 352 351 352 351 349 348 347 347 348 349 350 351 351 351 351 350 350 350 350 350 350 351 351 352 353 354 355 356 356 357 358 359 359 360 0 0 0 1 2 1 1 2 1 1 2 3 2 2 3 4 4 5 5 6 5 5 3 2 1 0 359 357 357 357 358 358 357
324 330 332 333 334 337 342 348 352 355 356 356 355 353 353 354 355 355 354 353 353 352 351 350 349 348 348 347 348 348 349 350 350 350 351 351 351 351 351 351 351 351 350 350 350 351 352 353 355 355 356 357 357 358 359 359 359 359 0 1 0 1 1 0 0 1 2 2 2 3 3 4 4 5 5 5 4 3 2 1 359 358 357 357 357 357 357
320 326 328 329 332 337 343 348 351 352 352 352 351 351 352 354 355 355 354 353 352 351 350 349 350 349 349 349 349 349 349 349 349 349 349 350 351 351 352 352 352 352 352 351 350 350 350 351 353 353 354 355 356 356 357 358 358 358 358 359 360 360 0 0 360 360 1 2 2 2 2 3 4 4 4 4 4 3 2 1 0 358 357 357 357 357 357
314 320 323 326 330 335 340 344 346 347 348 349 350 351 352 353 353 353 352 351 352 352 351 351 351 351 352 351 351 350 349 349 348 348 349 349 350 351 352 352 353 353 353 352 352 351 351 350 351 352 353 353 354 355 355 356 356 356 356 357 358 359 359 359 359 359 360 1 1 2 2 2 2 3 4 4 3 3 2 2 1 359 358 357 357 357 357
309 315 318 322 327 331 336 340 342 344 346 348 349 349 351 351 350 350 351 352 352 352 352 353 353 353 353 353 352 351 351 350 349 349 349 349 349 350 351 352 352 353 353 353 353 352 352 352 351 351 351 352 352 353 353 354 355 355 355 356 357 357 358 358 359 359 359 359 0 1 1 1 2 2 3 3 3 3 2 2 1 360 358 357 357 356 356
303 309 313 318 323 328 333 336 339 341 344 346 346 347 348 349 349 350 351 352 351 352 353 353 354 354 354 354 353 353 352 351 350 350 349 349 348 349 350 350 351 352 353 353 353 353 353 353 353 352 351 351 352 352 352 352 353 354 354 354 355 356 357 358 358 358 358 358 359 360 0 0 1 1 2 2 2 2 2 1 1 360 358 357 357 356 356
298 304 309 314 320 325 329 333 336 339 341 343 344 344 345 346 347 349 351 351 351 352 353 353 354 354 354 354 354 354 353 352 351 350 350 349 348 348 349 349 350 351 352 353 353 353 353 353 353 352 351 351 351 351 351 351 351 352 353 353 354 354 355 356 357 358 358 358 358 358 359 360 360 0 1 2 2 2 1 1 0 360 359 357 357 356 356
293 299 304 310 317 322 325 329 333 336 338 340 340 341 342 344 346 348 350 351 351 352 353 353 354 354 354 354 354 354 353 352 351 350 350 349 348 348 348 349 349 350 351 352 353 353 352 352 352 352 352 351 351 351 351 351 350 351 351 352 352 353 354 355 356 357 357 357 357 357 358 359 359 360 0 1 1 1 1 0 360 359 358 358 357 356 356
288 294 300 306 312 317 321 325 329 332 334 336 337 339 341 343 345 347 349 350 351 351 352 352 353 353 353 353 352 352 352 351 351 350 349 349 349 348 348 348 349 350 351 351 352 352 352 351 352 352 352 351 351 351 351 351 350 350 350 351 351 352 353 354 355 356 356 357 357 357 357 358 358 359 359 360 360 0 360 360 359 359 358 357 357 356 356
284 290 295 301 307 312 316 321 325 328 330 332 335 337 340 342 344 346 347 348 349 350 350 351 351 351 351 350 350 351 351 351 350 350 349 349 348 348 348 348 348 349 350 351 351 352 351 351 351 351 352 352 351 351 351 351 350 350 350 350 350 351 351 352 354 355 355 356 356 357 357 357 358 358 359 359 359 359 359 359 359 358 358 357 357 356 356
281 285 290 296 301 306 311 316 321 324 327 329 332 335 337 340 342 344 345 346 346 347 348 348 348 349 349 349 349 350 350 350 350 349 349 349 348 347 347 347 348 348 349 350 350 351 351 351 350 350 351 351 351 351 350 351 351 350 350 350 350 350 351 351 353 354 355 355 355 356 356 356 357 357 358 358 358 358 359 358 358 358 357 357 356 356 356
278 281 286 291 296 301 306 311 316 320 323 326 329 332 335 337 339 341 341 342 343 344 345 346 346 347 347 348 348 348 348 348 348 348 348 348 347 347 346 347 347 348 348 349 349 350 350 351 350 350 350 350 350 350 350 350 350 350 350 350 350 350 351 351 352 353 354 354 355 355 355 356 356 356 357 357 358 358 358 358 358 357 357 357 356 356 356
276 278 282 287 291 296 301 307 312 316 319 322 326 329 331 334 336 337 338 339 340 341 342 343 344 345 345 346 346 346 346 346 346 347 347 347 347 346 346 346 347 348 348 348 348 349 349 350 350 350 349 349 349 350 350 350 350 350 350 350 350 350 350 351 352 352 353 353 354 354 354 355 355 355 356 356 357 357 357 357 357 357 357 356 356 355 355
275 276 279 283 288 292 298 303 308 312 315 318 322 325 327 330 332 333 334 335 336 337 339 340 342 343 343 343 344 344 344 344 345 345 346 346 346 346 346 346 346 347 347 347 347 347 348 349 349 350 350 350 350 350 350 350 350 350 350 350 350 350 350 351 351 352 352 352 353 353 354 354 354 355 355 355 356 356 357 357 357 356 356 356 355 355 355
274 275 278 281 285 289 294 299 304 308 311 314 317 321 323 326 328 329 331 332 333 335 336 338 339 340 341 342 342 343 343 343 343 344 344 345 345 345 345 345 345 346 346 346 346 347 348 349 350 351 351 351 351 351 351 351 351 351 350 350 350 350 350 350 351 352 352 352 352 353 353 353 354 354 354 354 355 355 356 356 356 356 356 355 355 354 354
275 276 277 280 283 287 291 295 299 303 306 309 313 316 320 322 324 326 327 329 330 332 333 335 337 338 339 340 340 341 342 341 341 342 342 343 344 344 344 344 344 345 345 345 346 348 349 350 351 353 353 353 353 353 353 352 352 352 351 351 350 350 350 350 351 351 351 351 352 352 353 353 353 353 354 354 354 354 355 355 355 355 355 355 354 354 354
276 276 277 279 282 285 288 292 296 299 303 306 310 313 316 318 320 322 324 326 328 329 330 332 334 336 337 337 338 339 340 340 340 340 341 341 341 342 343 343 344 344 345 345 347 348 349 350 352 354 354 354 354 354 354 353 353 352 352 351 350 350 350 350 351 351 351 351 351 352 352 352 353 353 353 353 353 354 354 354 355 355 355 355 354 353 353
277 276 276 278 281 283 286 290 294 297 300 303 306 309 312 314 317 319 321 323 325 326 328 330 332 333 334 335 336 337 338 338 339 339 339 339 340 340 341 342 343 343 344 345 347 348 349 349 350 352 353 353 353 353 353 353 352 351 351 350 350 350 350 350 351 351 351 351 351 351 351 352 352 352 352 352 353 353 353 354 354 354 354 354 354 353 353
278 277 277 278 280 282 285 288 292 295 298 301 303 306 309 311 314 316 319 321 322 324 325 327 329 330 332 333 334 334 335 336 337 337 337 338 338 339 339 340 341 342 343 345 346 347 348 348 349 350 351 351 352 352 352 352 352 351 351 350 349 349 349 350 350 350 350 350 350 350 350 351 351 352 352 352 352 352 352 353 353 353 354 354 353 352 352
279 279 279 279 280 282 285 288 291 293 296 299 301 304 307 309 312 314 316 317 319 320 322 324 326 328 329 330 331 332 333 333 334 335 336 336 337 337 337 338 340 341 342 343 344 345 346 347 347 347 348 349 350 350 350 351 351 351 351 351 350 350 349 349 349 349 349 349 349 349 350 350 350 351 351 351 351 351 351 352 352 353 353 353 353 352 352
281 281 281 280 281 282 284 287 289 292 294 297 300 302 305 307 309 311 313 315 316 318 320 322 323 325 327 329 329 330 331 331 332 333 334 335 335 335 336 337 338 339 340 341 342 343 344 344 344 345 345 346 347 347 348 349 349 350 350 351 351 350 349 349 348 348 348 348 349 349 349 349 349 350 350 350 350 350 350 351 351 352 352 352 352 352 351
283 283 283 282 282 283 284 286 288 291 293 295 298 300 303 305 308 309 311 313 314 316 318 319 321 323 325 327 327 328 329 330 330 330 332 334 334 333 334 335 337 338 338 339 340 341 341 342 342 342 343 344 344 345 346 347 348 349 349 350 350 350 350 349 348 347 347 347 347 348 348 348 349 349 349 350 350 350 350 350 350 351 351 351 351 351 350
284 285 285 284 284 284 285 286 288 290 292 295 297 300 302 304 305 307 309 310 312 314 315 317 319 321 323 325 325 326 327 329 328 328 330 333 333 332 332 333 334 335 336 337 338 339 339 340 340 340 341 342 343 343 344 345 346 347 348 348 349 349 349 349 348 347 346 346 346 347 347 347 348 348 349 349 349 349 349 349 349 350 350 350 350 350 350
285 286 286 285 285 285 286 287 288 290 292 294 296 299 301 302 304 306 307 308 310 312 313 315 317 319 321 323 324 324 325 327 327 326 327 330 332 331 330 331 332 333 334 335 336 337 338 339 339 339 340 341 342 342 343 344 345 345 346 347 348 348 348 348 347 346 346 345 345 345 346 347 347 347 348 348 348 348 348 348 348 349 349 349 349 350 349
286 287 287 287 286 287 287 287 288 290 291 293 295 297 299 301 303 304 305 307 308 310 311 313 316 318 320 322 322 322 323 325 326 325 325 328 330 330 329 329 330 331 332 333 334 335 336 338 338 338 339 340 341 341 342 342 343 344 345 345 346 347 347 347 347 346 345 345 344 344 345 346 346 346 347 347 347 347 347 347 347 348 348 348 348 349 348
286 287 287 287 287 288 288 289 290 290 292 293 295 297 299 300 302 303 305 306 307 308 310 312 314 316 318 320 321 321 321 323 325 324 323 325 328 328 328 328 329 329 330 331 332 334 335 336 337 337 338 338 339 340 340 341 342 342 343 344 345 345 346 346 345 345 344 344 344 343 344 344 345 346 346 346 346 346 346 346 346 347 347 347 347 347 348
286 287 288 288 288 289 289 290 291 292 293 294 296 297 298 300 301 302 303 304 305 307 309 311 313 315 317 318 319 319 320 322 323 322 321 323 326 327 327 327 328 328 328 329 330 332 333 335 336 336 336 337 338 339 339 340 340 341 342 343 343 344 344 344 344 344 344 343 343 342 343 343 344 345 345 346 345 345 345 346 345 346 346 346 346 346 347
286 288 289 289 289 290 291 292 292 293 295 296 297 298 299 300 301 301 302 303 305 306 308 310 312 314 315 317 318 317 318 320 321 320 320 321 324 326 326 327 328 328 328 328 329 330 332 333 334 335 335 336 337 338 338 338 339 340 340 341 342 342 343 343 343 343 342 342 342 341 342 342 343 344 344 345 345 344 344 345 345 345 345 345 345 345 345
286 288 289 290 290 291 292 293 293 294 296 297 298 299 299 300 301 301 302 303 304 305 307 308 310 312 314 316 316 316 317 319 319 318 318 320 322 324 326 327 327 328 327 327 328 329 330 331 333 333 334 335 336 336 336 337 337 338 339 340 340 341 341 342 342 341 341 341 341 341 341 341 342 343 343 344 344 344 344 344 344 344 344 344 344 344 344
285 287 289 290 291 291 292 293 294 295 296 296 297 298 299 299 300 301 302 303 303 304 305 307 309 311 314 315 314 314 315 317 317 317 317 319 321 324 325 327 327 327 327 327 327 328 328 330 331 332 332 333 334 335 335 336 336 337 338 338 339 340 340 340 340 340 340 340 340 340 340 340 341 342 343 343 343 343 343 343 343 343 343 343 343 343 343
Height
10645 10643 10642 10640 10638 10636 10634 10632 10629 10627 10624 10621 10618 10615 10612 10609 10606 10604 10601 10598 10594 10591 10588 10585 10581 10578 10575 10572 10569 10566 10563 10560 10557 10553 10550 10546 10542 10538 10534 10530 10525 10520 10515 10510 10506 10501 10496 10491 10485 10479 10473 10467 10461 10455 10449 10443 10437 10431 10425 10420 10414 10408 10403 10398 10393 10387 10382 10376 10370 10365 10359 10353 10347 10340 10335 10330 10325 10319 10310 10302 10296 10289 10282 10277 10267 10258 10254
10643 10641 10640 10638 10636 10634 10632 10629 10627 10624 10621 10618 10615 10613 10610 10608 10605 10602 10599 10596 10593 10590 10586 10583 10580 10577 10574 10571 10568 10565 10562 10558 10555 10552 10548 10544 10540 10536 10532 10527 10522 10518 10513 10509 10504 10499 10494 10488 10483 10477 10471 10465 10459 10453 10447 10441 10435 10429 10423 10418 10412 10406 10401 10395 10390 10385 10379 10373 10368 10362 10357 10351 10345 10338 10332 10327 10321 10315 10306 10296 10289 10281 10273 10267 10260 10249 10240
10641 10639 10638 10636 10634 10632 10629 10626 10624 10621 10619 10616 10614 10611 10609 10606 10603 10601 10598 10595 10592 10588 10585 10582 10579 10576 10573 10570 10567 10564 10560 10557 10554 10550 10546 10542 10538 10534 10529 10525 10521 10516 10512 10508 10503 10498 10492 10486 10481 10475 10469 10463 10456 10450 10444 10438 10432 10426 10421 10414 10408 10403 10397 10391 10385 10380 10375 10370 10364 10358 10352 10345 10338 10332 10325 10320 10315 10308 10299 10289 10281 10274 10264 10255 10249 10241 10231
10639 10637 10636 10634 10632 10629 10627 10624 10622 10619 10617 10615 10613 10610 10608 10605 10602 10599 10597 10594 10591 10588 10585 10582 10578 10575 10572 10569 10565 10562 10559 10556 10552 10548 10544 10540 10536 10532 10528 10524 10519 10515 10511 10506 10501 10496 10491 10485 10479 10473 10467 10461 10454 10448 10441 10435 10429 10423 10417 10411 10405 10399 10393 10386 10381 10375 10369 10363 10357 10351 10344 10338 10330 10323 10316 10310 10305 10299 10291 10281 10272 10266 10258 10248 10240 10233 10225
10637 10635 10633 10631 10629 10627 10625 10622 10620 10618 10616 10614 10612 10609 10606 10604 10601 10598 10596 10593 10590 10587 10584 10581 10577 10574 10571 10567 10564 10561 10557 10554 10550 10546 10542 10538 10534 10530 10527 10523 10519 10514 10510 10505 10500 10495 10489 10483 10477 10471 10464 10458 10452 10445 10439 10433 10426 10420 10414 10408 10402 10396 10390 10383 10377 10371 10364 10358 10352 10344 10337 10331 10324 10316 10309 10301 10295 10291 10285 10276 10266 10258 10252 10245 10236 10227 10219
10635 10633 10631 10629 10627 10625 10623 10621 10619 10617 10615 10613 10610 10608 10606 10603 10601 10598 10595 10592 10589 10586 10583 10580 10577 10573 10570 10566 10562 10559 10556 10552 10548 10544 10540 10537 10533 10530 10526 10522 10518 10514 10509 10504 10499 10493 10487 10481 10475 10469 10462 10456 10450 10443 10437 10431 10425 10419 10412 10406 10400 10393 10387 10380 10373 10366 10360 10353 10347 10340 10333 10326 10319 10312 10303 10295 10288 10284 10279 10271 10262 10253 10245 10240 10233 10225 10216
10633 10631 10629 10627 10625 10623 10621 10619 10617 10616 10614 10611 10609 10607 10605 10603 10600 10597 10594 10591 10588 10585 10582 10579 10576 10572 10568 10565 10561 10558 10554 10550 10547 10543 10539 10536 10532 10529 10525 10521 10517 10512 10508 10503 10497 10491 10485 10479 10473 10467 10461 10454 10448 10442 10436 10430 10423 10417 10411 10404 10398 10391 10385 10378 10372 10364 10357 10349 10342 10337 10330 10323 10315 10307 10299 10291 10284 10279 10273 10266 10258 10250 10241 10235 10229 10222 10214
10631 10629 10627 10625 10624 10622 10620 10618 10617 10615 10613 10611 10608 10606 10604 10601 10599 10596 10593 10590 10587 10584 10581 10577 10574 10570 10567 10564 10560 10557 10553 10549 10545 10542 10538 10535 10532 10528 10524 10520 10516 10511 10506 10501 10495 10489 10483 10477 10471 10465 10459 10453 10447 10441 10435 10429 10422 10416 10409 10403 10396 10389 10383 10376 10370 10363 10357 10350 10342 10335 10328 10320 10313 10304 10296 10289 10280 10272 10267 10261 10255 10247 10239 10230 10222 10217 10210
10629 10627 10626 10624 10622 10620 10619 10617 10616 10614 10612 10610 10608 10606 10603 10600 10598 10595 10592 10589 10586 10583 10580 10576 10573 10569 10566 10563 10559 10555 10552 10548 10545 10541 10538 10535 10531 10527 10523 10519 10514 10509 10504 10499 10493 10488 10482 10476 10470 10464 10458 10452 10446 10440 10434 10427 10421 10414 10408 10401 10394 10388 10381 10373 10366 10360 10354 10349 10342 10334 10327 10318 10310 10303 10295 10287 10276 10265 10259 10255 10249 10242 10236 10228 10218 10211 10204
10627 10626 10624 10622 10621 10619 10618 10616 10615 10613 10611 10609 10607 10604 10602 10599 10597 10594 10591 10588 10585 10582 10578 10575 10571 10568 10565 10562 10558 10554 10551 10547 10544 10541 10537 10534 10530 10526 10522 10518 10513 10508 10503 10498 10492 10487 10481 10475 10470 10464 10458 10452 10445 10439 10433 10426 10420 10413 10407 10400 10393 10386 10380 10373 10366 10358 10351 10344 10336 10329 10322 10315 10308 10301 10292 10283 10273 10262 10253 10249 10243 10234 10227 10221 10213 10205 10198
10626 10624 10623 10621 10620 10618 10617 10616 10614 10612 10610 10608 10606 10603 10601 10598 10595 10592 10590 10587 10584 10581 10577 10574 10571 10568 10565 10561 10557 10554 10550 10547 10543 10540 10536 10533 10529 10525 10521 10517 10512 10507 10502 10497 10492 10486 10480 10474 10469 10463 10457 10451 10444 10438 10432 10426 10420 10413 10407 10400 10393 10386 10379 10372 10365 10357 10349 10341 10333 10325 10318 10311 10304 10296 10287 10278 10271 10261 10249 10241 10236 10228 10219 10212 10206 10199 10193
10625 10623 10622 10620 10619 10618 10616 10615 10613 10611 10609 10607 10605 10602 10600 10597 10594 10591 10589 10586 10583 10580 10577 10574 10571 10568 10564 10560 10557 10553 10549 10546 10543 10539 10536 10532 10528 10524 10520 10515 10511 10506 10501 10496 10491 10485 10479 10474 10468 10462 10456 10449 10443 10437 10431 10425 10419 10412 10406 10399 10393 10385 10378 10371 10364 10356 10348 10340 10333 10325 10316 10307 10298 10291 10283 10276 10270 10261 10248 10236 10231 10225 10217 10210 10202 10194 10187
10624 10622 10621 10619 10618 10617 10616 10614 10612 10610 10608 10606 10604 10601 10599 10596 10593 10590 10588 10585 10582 10579 10576 10573 10570 10567 10563 10560 10556 10552 10549 10546 10542 10538 10535 10531 10527 10523 10519 10514 10510 10505 10500 10495 10489 10484 10478 10472 10466 10460 10454 10448 10441 10435 10429 10424 10418 10412 10405 10398 10392 10385 10377 10370 10362 10355 10348 10339 10331 10322 10314 10305 10296 10289 10282 10275 10267 10260 10251 10238 10229 10223 10215 10207 10199 10190 10182
10623 10621 10620 10619 10618 10616 10615 10613 10611 10609 10607 10605 10603 10600 10598 10595 10592 10590 10587 10584 10582 10579 10576 10573 10570 10566 10563 10559 10556 10552 10548 10545 10541 10538 10534 10530 10526 10522 10518 10513 10508 10504 10499 10494 10488 10483 10477 10471 10465 10459 10453 10447 10441 10435 10428 10422 10416 10410 10403 10396 10390 10383 10376 10369 10361 10353 10346 10337 10328 10320 10311 10304 10296 10288 10280 10272 10264 10257 10251 10241 10230 10220 10211 10203 10195 10188 10180
10622 10620 10619 10618 10617 10616 10614 10612 10610 10608 10606 10604 10601 10599 10596 10594 10591 10589 10586 10583 10581 10578 10575 10572 10569 10566 10562 10559 10555 10551 10548 10544 10541 10537 10533 10529 10525 10521 10516 10512 10507 10503 10498 10493 10487 10482 10476 10471 10465 10459 10454 10448 10442 10436 10429 10422 10415 10407 10400 10393 10387 10380 10373 10366 10358 10350 10342 10334 10327 10321 10313 10303 10294 10286 10277 10269 10262 10254 10248 10240 10229 10219 10211 10202 10194 10185 10177
10621 10619 10618 10617 10616 10615 10613 10611 10610 10607 10605 10603 10600 10598 10595 10593 10590 10588 10585 10583 10580 10577 10574 10571 10568 10565 10561 10558 10554 10551 10547 10543 10540 10536 10532 10528 10524 10520 10516 10511 10506 10502 10497 10492 10486 10481 10476 10470 10464 10458 10452 10446 10440 10434 10428 10421 10414 10406 10399 10391 10383 10376 10369 10362 10355 10348 10340 10332 10323 10315 10308 10300 10291 10282 10273 10264 10257 10251 10244 10237 10229 10220 10211 10202 10192 10183 10174
10620 10619 10618 10617 10615 10614 10612 10611 10609 10607 10604 10602 10599 10597 10594 10592 10589 10587 10584 10582 10579 10576 10573 10570 10567 10564 10561 10557 10554 10550 10546 10543 10539 10535 10531 10528 10524 10519 10515 10510 10506 10501 10496 10490 10485 10480 10475 10469 10463 10456 10450 10444 10438 10432 10426 10419 10412 10405 10398 10391 10383 10375 10367 10360 10353 10345 10338 10330 10320 10310 10302 10296 10287 10278 10270 10262 10253 10245 10238 10232 10225 10216 10207 10198 10189 10179 10170
10619 10618 10617 10616 10615 10613 10611 10610 10608 10605 10603 10601 10598 10596 10593 10591 10589 10586 10583 10581 10578 10575 10572 10570 10567 10564 10560 10556 10553 10549 10546 10542 10538 10535 10531 10527 10523 10519 10514 10510 10505 10500 10495 10490 10484 10479 10473 10468 10462 10455 10449 10443 10436 10429 10423 10417 10411 10403 10396 10390 10383 10375 10367 10359 10351 10343 10335 10328 10320 10310 10299 10291 10283 10274 10266 10258 10250 10241 10232 10224 10216 10208 10199 10191 10183 10174 10164
10618 10618 10617 10615 10614 10613 10611 10609 10607 10604 10602 10600 10597 10595 10593 10590 10588 10585 10582 10580 10577 10574 10572 10569 10566 10563 10559 10556 10552 10549 10545 10542 10538 10534 10530 10526 10522 10517 10513 10508 10504 10499 10494 10488 10483 10477 10472 10466 10461 10454 10448 10442 10435 10428 10421 10413 10408 10401 10394 10387 10380 10374 10366 10358 10351 10343 10335 10327 10320 10312 10301 10290 10281 10273 10264 10254 10245 10237 10227 10218 10209 10201 10193 10185 10177 10168 10159
10618 10617 10616 10614 10613 10611 10609 10607 10605 10603 10601 10598 10596 10594 10592 10589 10587 10584 10582 10579 10576 10574 10571 10568 10565 10562 10558 10555 10552 10548 10544 10541 10537 10533 10529 10525 10521 10516 10512 10507 10502 10497 10492 10487 10482 10476 10471 10465 10459 10454 10447 10440 10434 10427 10421 10413 10405 10398 10392 10385 10378 10371 10364 10357 10348 10340 10333 10325 10316 10310 10301 10290 10278 10268 10260 10251 10242 10232 10223 10214 10205 10197 10189 10180 10171 10163 10154
10617 10616 10615 10613 10612 10610 10608 10606 10604 10602 10600 10598 10596 10594 10591 10588 10586 10584 10581 10579 10576 10573 10571 10567 10564 10561 10557 10554 10551 10547 10544 10540 10536 10532 10528 10524 10520 10515 10511 10506 10501 10496 10491 10486 10480 10475 10469 10463 10458 10452 10446 10439 10432 10425 10419 10413 10405 10397 10390 10384 10376 10368 10360 10353 10345 10335 10328 10320 10310 10301 10294 10287 10276 10264 10253 10245 10237 10229 10221 10212 10203 10194 10186 10176 10167 10158 10149
10616 10615 10614 10613 10611 10610 10608 10606 10604 10602 10599 10597 10595 10592 10590 10588 10586 10583 10581 10578 10576 10573 10569 10566 10563 10560 10557 10553 10550 10546 10542 10539 10535 10530 10526 10522 10518 10513 10509 10504 10500 10495 10490 10484 10479 10473 10467 10461 10455 10449 10444 10438 10431 10424 10417 10410 10404 10397 10389 10382 10374 10367 10359 10351 10343 10333 10323 10315 10307 10296 10287 10279 10272 10263 10252 10242 10233 10225 10216 10208 10198 10189 10181 10172 10163 10154 10144
10615 10614 10613 10612 10610 10609 10607 10605 10603 10600 10598 10596 10594 10592 10590 10588 10585 10583 10580 10578 10575 10571 10568 10565 10562 10559 10556 10552 10549 10545 10541 10537 10533 10529 10525 10520 10516 10511 10507 10502 10497 10492 10487 10482 10476 10471 10465 10459 10452 10446 10440 10435 10429 10423 10416 10409 10402 10395 10389 10381 10372 10365 10358 10349 10342 10335 10325 10315 10306 10297 10288 10278 10269 10262 10253 10243 10232 10222 10212 10203 10194 10185 10176 10168 10159 10150 10141
10614 10613 10612 10611 10609 10608 10606 10604 10601 10599 10598 10596 10594 10592 10590 10588 10585 10582 10579 10576 10573 10570 10567 10565 10562 10558 10555 10551 10547 10544 10539 10535 10531 10527 10523 10518 10513 10509 10504 10499 10494 10489 10484 10478 10473 10468 10462 10456 10450 10443 10437 10431 10425 10420 10414 10408 10401 10394 10389 10382 10374 10365 10358 10349 10340 10334 10326 10316 10306 10297 10288 10279 10269 10259 10250 10242 10232 10222 10212 10202 10192 10183 10174 10165 10156 10147 10137
10613 10612 10611 10610 10608 10607 10605 10603 10601 10600 10598 10596 10594 10592 10590 10587 10584 10581 10578 10576 10573 10570 10567 10564 10560 10557 10553 10549 10545 10542 10538 10533 10529 10525 10520 10516 10511 10506 10502 10497 10491 10486 10481 10476 10470 10465 10459 10454 10448 10441 10434 10428 10422 10416 10410 10405 10399 10392 10385 10379 10373 10365 10358 10350 10341 10332 10325 10317 10307 10296 10286 10277 10268 10259 10249 10240 10230 10221 10212 10202 10192 10182 10173 10163 10154 10145 10134
10612 10611 10610 10609 10608 10606 10604 10603 10601 10599 10597 10595 10593 10591 10588 10586 10583 10581 10578 10575 10572 10569 10566 10562 10559 10555 10551 10547 10543 10540 10536 10531 10527 10523 10518 10514 10509 10504 10499 10494 10489 10484 10479 10474 10468 10463 10457 10451 10446 10440 10433 10426 10419 10413 10407 10401 10395 10389 10382 10375 10369 10362 10355 10348 10340 10331 10323 10316 10308 10299 10289 10278 10269 10260 10250 10240 10229 10218 10209 10200 10191 10181 10171 10161 10152 10142 10133
10611 10610 10609 10608 10607 10605 10603 10602 10600 10598 10596 10594 10592 10589 10587 10585 10582 10580 10577 10574 10571 10568 10564 10560 10557 10553 10549 10545 10541 10537 10533 10529 10525 10520 10515 10511 10506 10501 10497 10492 10487 10482 10477 10472 10466 10461 10455 10449 10443 10437 10432 10425 10418 10411 10404 10398 10392 10386 10379 10372 10366 10359 10352 10344 10336 10328 10319 10311 10304 10296 10287 10277 10267 10256 10246 10236 10226 10216 10206 10196 10187 10178 10168 10158 10149 10140 10131
10610 10609 10608 10607 10605 10604 10602 10600 10599 10597 10595 10592 10590 10588 10586 10583 10581 10578 10575 10572 10569 10566 10562 10559 10555 10551 10547 10543 10539 10535 10531 10526 10522 10518 10513 10509 10504 10499 10495 10490 10485 10480 10475 10470 10464 10458 10452 10447 10442 10436 10430 10425 10418 10411 10403 10396 10390 10384 10376 10368 10361 10355 10349 10341 10334 10325 10316 10306 10298 10289 10281 10272 10262 10252 10241 10231 10221 10211 10201 10192 10183 10174 10164 10154 10145 10136 10126
10608 10607 10606 10605 10604 10602 10601 10599 10597 10595 10593 10591 10589 10587 10584 10582 10579 10576 10573 10570 10567 10564 10560 10557 10553 10549 10545 10541 10537 10532 10528 10524 10520 10516 10512 10507 10502 10497 10493 10488 10483 10478 10473 10468 10462 10456 10450 10444 10439 10434 10428 10423 10418 10412 10404 10396 10388 10382 10375 10368 10360 10352 10345 10338 10331 10323 10314 10304 10294 10285 10277 10268 10258 10248 10238 10228 10218 10209 10199 10189 10179 10171 10161 10151 10141 10131 10122
10607 10606 10605 10604 10602 10601 10599 10598 10596 10594 10592 10590 10588 10586 10583 10580 10578 10575 10572 10568 10565 10562 10558 10554 10550 10547 10543 10539 10535 10531 10527 10523 10518 10514 10510 10506 10501 10496 10491 10486 10481 10476 10471 10466 10460 10455 10449 10443 10437 10431 10425 10419 10414 10409 10404 10396 10388 10381 10374 10367 10359 10351 10342 10335 10327 10320 10312 10303 10293 10283 10274 10265 10255 10245 10235 10224 10215 10205 10195 10186 10176 10166 10157 10148 10138 10128 10118
10605 10604 10603 10602 10601 10599 10598 10596 10594 10592 10591 10589 10586 10584 10581 10578 10576 10573 10570 10566 10563 10560 10556 10552 10548 10544 10541 10537 10533 10530 10526 10521 10517 10512 10508 10504 10499 10494 10489 10484 10479 10474 10469 10464 10458 10452 10446 10441 10435 10430 10423 10416 10409 10404 10399 10394 10387 10379 10372 10364 10356 10348 10340 10332 10324 10316 10308 10301 10292 10282 10271 10262 10253 10243 10233 10222 10212 10203 10193 10183 10173 10163 10153 10143 10134 10124 10113
10603 10602 10601 10600 10599 10598 10596 10595 10593 10591 10589 10587 10585 10582 10580 10577 10574 10571 10568 10564 10561 10558 10555 10551 10548 10544 10540 10536 10532 10528 10524 10519 10515 10510 10505 10500 10496 10491 10487 10482 10477 10472 10467 10462 10456 10450 10444 10438 10432 10427 10421 10415 10408 10401 10395 10389 10383 10376 10369 10362 10354 10346 10338 10330 10322 10314 10305 10297 10289 10280 10270 10260 10251 10241 10232 10222 10212 10202 10192 10182 10172 10162 10151 10141 10131 10120 10110
10602 10601 10600 10598 10597 10596 10594 10593 10591 10589 10587 10585 10583 10580 10578 10575 10572 10569 10566 10563 10560 10557 10553 10550 10546 10543 10539 10535 10531 10526 10522 10517 10513 10508 10503 10498 10493 10488 10484 10480 10475 10469 10464 10459 10454 10449 10443 10437 10430 10424 10418 10413 10406 10399 10392 10385 10379 10373 10366 10359 10352 10344 10336 10328 10319 10311 10303 10293 10284 10276 10267 10258 10248 10239 10230 10220 10210 10200 10190 10180 10169 10159 10149 10139 10128 10118 10107
10600 10599 10598 10596 10595 10594 10592 10591 10589 10587 10585 10583 10581 10578 10576 10573 10570 10567 10564 10561 10558 10555 10552 10548 10544 10540 10536 10533 10529 10525 10521 10517 10512 10508 10503 10498 10493 10487 10482 10477 10472 10467 10462 10456 10451 10446 10441 10435 10429 10422 10415 10409 10404 10397 10390 10383 10376 10370 10363 10355 10348 10341 10334 10325 10315 10306 10298 10290 10281 10272 10263 10254 10245 10235 10226 10216 10206 10196 10186 10176 10166 10155 10145 10135 10125 10115 10105
10597 10596 10595 10594 10593 10592 10590 10589 10587 10585 10583 10581 10579 10576 10574 10571 10568 10566 10563 10560 10557 10553 10550 10547 10543 10539 10534 10530 10527 10523 10519 10515 10511 10507 10502 10497 10492 10486 10481 10475 10470 10465 10460 10454 10448 10443 10438 10432 10426 10420 10413 10407 10400 10394 10388 10380 10372 10365 10358 10352 10344 10337 10330 10322 10313 10304 10295 10287 10278 10269 10259 10250 10240 10231 10222 10213 10204 10194 10183 10173 10163 10152 10141 10131 10121 10111 10102
10595 10594 10593 10592 10591 10589 10588 10586 10585 10583 10581 10579 10577 10574 10572 10569 10566 10564 10561 10558 10555 10552 10548 10544 10541 10538 10534 10530 10526 10522 10517 10513 10508 10504 10499 10495 10490 10485 10479 10473 10468 10463 10457 10452 10445 10440 10435 10429 10423 10417 10410 10404 10396 10390 10383 10376 10369 10362 10355 10347 10340 10333 10326 10319 10311 10303 10294 10285 10275 10266 10256 10246 10237 10227 10218 10209 10200 10191 10181 10171 10160 10150 10139 10128 10118 10108 10098
10593 10592 10591 10590 10588 10587 10586 10584 10583 10581 10579 10577 10574 10572 10570 10567 10564 10561 10558 10555 10552 10549 10545 10542 10538 10535 10531 10528 10524 10519 10514 10510 10506 10502 10497 10493 10488 10483 10478 10473 10467 10461 10456 10450 10444 10437 10431 10426 10420 10413 10406 10399 10393 10386 10379 10373 10366 10359 10351 10344 10336 10329 10322 10315 10307 10300 10291 10282 10273 10263 10253 10243 10233 10223 10213 10204 10194 10185 10176 10166 10157 10146 10136 10125 10114 10104 10094
10590 10589 10588 10587 10586 10585 10583 10582 10580 10578 10576 10574 10572 10569 10567 10564 10562 10559 10556 10553 10549 10546 10542 10539 10535 10531 10527 10524 10520 10516 10512 10507 10502 10498 10494 10490 10486 10481 10477 10472 10466 10461 10455 10448 10443 10436 10429 10423 10418 10411 10404 10396 10390 10383 10376 10369 10362 10355 10348 10341 10333 10325 10318 10310 10302 10294 10286 10277 10269 10260 10251 10241 10231 10221 10211 10201 10191 10181 10172 10162 10152 10143 10132 10122 10111 10100 10090
10587 10586 10585 10584 10583 10582 10580 10579 10577 10575 10573 10571 10569 10567 10564 10562 10559 10556 10553 10550 10546 10543 10539 10536 10532 10529 10525 10521 10517 10513 10509 10505 10500 10495 10490 10486 10482 10478 10474 10469 10464 10458 10452 10446 10441 10435 10428 10422 10416 10410 10403 10396 10389 10382 10374 10367 10360 10353 10346 10338 10330 10322 10314 10306 10298 10289 10280 10272 10263 10255 10247 10238 10229 10219 10209 10199 10189 10179 10169 10159 10149 10139 10129 10118 10107 10096 10086
10584 10583 10582 10581 10580 10579 10577 10576 10574 10572 10570 10568 10566 10564 10562 10559 10556 10553 10550 10546 10543 10540 10536 10533 10529 10526 10522 10518 10514 10510 10506 10502 10498 10493 10488 10483 10478 10473 10469 10465 10460 10454 10449 10444 10438 10433 10426 10419 10413 10407 10401 10394 10388 10380 10373 10365 10358 10351 10344 10336 10328 10319 10311 10302 10293 10285 10276 10268 10259 10250 10241 10233 10224 10215 10205 10195 10185 10176 10166 10156 10146 10135 10125 10115 10104 10093 10082
10581 10580 10579 10578 10577 10575 10574 10573 10571 10569 10567 10565 10563 10561 10559 10556 10553 10551 10547 10544 10540 10537 10534 10530 10527 10523 10519 10515 10511 10508 10503 10499 10495 10491 10486 10480 10475 10470 10464 10460 10456 10450 10445 10440 10434 10429 10424 10417 10409 10403 10397 10390 10384 10377 10370 10363 10355 10348 10340 10333 10324 10316 10307 10298 10289 10280 10272 10264 10255 10246 10237 10228 10220 10211 10201 10191 10181 10171 10162 10152 10142 10132 10122 10112 10101 10090 10079
10578 10577 10576 10575 10574 10572 10571 10569 10568 10566 10564 10562 10560 10557 10555 10553 10550 10547 10544 10541 10538 10535 10531 10528 10524 10521 10517 10513 10508 10505 10500 10496 10492 10488 10484 10478 10474 10469 10463 10457 10452 10446 10441 10436 10430 10424 10419 10413 10406 10399 10393 10387 10380 10373 10367 10360 10352 10344 10336 10328 10320 10311 10303 10294 10285 10277 10268 10260 10251 10242 10233 10224 10215 10206 10197 10187 10177 10167 10157 10148 10138 10127 10118 10108 10098 10087 10076
10575 10574 10573 10571 10570 10569 10568 10566 10564 10562 10560 10558 10556 10553 10551 10549 10546 10543 10540 10537 10535 10531 10528 10524 10520 10517 10513 10509 10505 10501 10497 10492 10487 10484 10480 10475 10470 10466 10461 10455 10450 10443 10437 10432 10426 10420 10414 10408 10402 10396 10389 10383 10376 10370 10363 10356 10348 10340 10331 10323 10315 10306 10298 10290 10281 10273 10264 10256 10247 10238 10229 10220 10211 10202 10193 10184 10173 10163 10152 10143 10133 10123 10113 10104 10094 10084 10073
10572 10570 10569 10568 10567 10565 10564 10562 10561 10559 10557 10554 10552 10550 10547 10544 10542 10538 10535 10532 10530 10527 10524 10520 10516 10512 10509 10505 10501 10497 10493 10488 10482 10479 10476 10471 10465 10460 10455 10451 10446 10441 10434 10428 10423 10418 10411 10405 10399 10393 10386 10380 10373 10366 10359 10352 10344 10335 10327 10318 10310 10302 10293 10285 10277 10269 10260 10252 10243 10234 10225 10216 10207 10198 10189 10179 10170 10159 10149 10138 10129 10119 10109 10099 10090 10080 10069
10568 10567 10566 10564 10563 10561 10560 10558 10556 10555 10553 10550 10548 10546 10543 10540 10538 10535 10531 10528 10525 10522 10519 10516 10512 10508 10504 10501 10496 10492 10489 10485 10479 10473 10471 10467 10461 10455 10449 10445 10441 10437 10431 10425 10419 10415 10409 10402 10395 10388 10382 10376 10368 10361 10353 10346 10339 10331 10323 10314 10306 10298 10289 10281 10272 10264 10256 10247 10239 10230 10221 10212 10203 10193 10184 10175 10166 10156 10145 10135 10125 10115 10104 10094 10086 10076 10066
10565 10563 10562 10560 10558 10557 10556 10554 10552 10550 10549 10546 10544 10541 10539 10536 10533 10530 10527 10523 10520 10518 10514 10511 10508 10504 10500 10496 10492 10486 10483 10480 10475 10468 10464 10462 10458 10451 10445 10439 10434 10430 10426 10421 10415 10409 10404 10398 10390 10383 10376 10370 10363 10355 10347 10341 10334 10326 10318 10310 10302 10294 10285 10277 10268 10260 10251 10243 10234 10225 10217 10208 10199 10189 10180 10170 10161 10152 10142 10131 10121 10111 10101 10090 10081 10072 10062
10561 10560 10559 10557 10554 10553 10552 10550 10548 10546 10545 10542 10540 10537 10535 10532 10528 10525 10522 10519 10515 10512 10509 10506 10504 10500 10496 10492 10487 10482 10477 10475 10470 10463 10458 10456 10453 10447 10441 10435 10428 10423 10419 10415 10410 10403 10398 10392 10385 10377 10370 10364 10357 10350 10342 10335 10328 10321 10313 10305 10297 10289 10281 10272 10264 10256 10247 10239 10230 10221 10212 10203 10194 10185 10175 10166 10157 10148 10138 10127 10117 10107 10097 10086 10077 10068 10058
10557 10556 10555 10553 10551 10548 10547 10545 10543 10541 10540 10538 10536 10533 10530 10527 10524 10520 10517 10513 10510 10507 10504 10501 10498 10495 10492 10488 10483 10478 10473 10469 10466 10459 10452 10449 10447 10443 10437 10431 10425 10418 10412 10407 10403 10398 10392 10386 10380 10372 10364 10358 10352 10344 10336 10328 10322 10315 10308 10300 10293 10284 10276 10268 10259 10251 10243 10234 10225 10216 10208 10199 10190 10180 10171 10161 10152 10143 10134 10123 10112 10103 10093 10082 10072 10063 10055
10553 10551 10550 10549 10547 10545 10543 10541 10538 10535 10534 10533 10531 10528 10525 10522 10519 10515 10512 10508 10504 10500 10498 10495 10493 10490 10487 10484 10479 10474 10469 10465 10460 10454 10448 10444 10441 10437 10431 10425 10420 10414 10406 10400 10395 10391 10386 10381 10376 10369 10360 10353 10346 10339 10331 10323 10316 10309 10302 10294 10287 10279 10271 10263 10254 10246 10237 10229 10221 10212 10203 10194 10185 10175 10166 10157 10147 10137 10129 10119 10108 10098 10088 10078 10068 10058 10050
10549 10547 10545 10544 10543 10541 10539 10537 10534 10531 10528 10527 10525 10523 10520 10517 10513 10510 10506 10503 10498 10494 10491 10489 10487 10484 10481 10478 10474 10469 10465 10461 10456 10449 10443 10438 10435 10432 10426 10420 10414 10408 10401 10393 10387 10382 10377 10373 10369 10363 10356 10348 10340 10333 10326 10318 10311 10304 10297 10289 10281 10274 10266 10258 10249 10241 10232 10224 10216 10207 10198 10189 10180 10171 10161 10152 10143 10132 10123 10114 10104 10093 10083 10073 10063 10053 10045
10545 10543 10541 10539 10539 10537 10535 10532 10530 10527 10524 10521 10519 10517 10514 10511 10508 10504 10500 10497 10492 10488 10485 10483 10481 10478 10476 10472 10468 10463 10460 10458 10452 10445 10438 10433 10430 10426 10422 10416 10409 10402 10396 10388 10381 10374 10368 10363 10359 10354 10349 10343 10336 10329 10321 10312 10305 10298 10291 10284 10276 10269 10261 10253 10244 10235 10227 10219 10211 10202 10193 10184 10175 10166 10156 10148 10139 10128 10118 10108 10099 10089 10078 10068 10058 10048 10039
10540 10539 10536 10534 10533 10532 10531 10528 10526 10523 10520 10517 10514 10512 10509 10505 10502 10499 10495 10491 10487 10483 10479 10477 10475 10472 10469 10465 10460 10456 10453 10452 10448 10440 10433 10428 10424 10420 10416 10411 10404 10397 10390 10384 10377 10369 10362 10357 10352 10346 10341 10335 10330 10323 10316 10308 10299 10292 10285 10279 10271 10263 10256 10248 10239 10230 10222 10214 10206 10197 10188 10180 10170 10161 10152 10143 10134 10124 10114 10104 10094 10084 10074 10063 10052 10042 10033